User: anonymous   Login
Location: Benque
(43.2594°N, 0.9178°E)
Time: 01:58:30
(UTC+00:00)
Language:

Cosmos 2263 Rocket - Orbit

View from above orbital plane
View from above orbital plane
View from above satellite
View from above satellite

Ground track
Ground track

The orbit data is extracted from the following two-line orbital elements,

1 22803U 93059B   20090.82253286 -.00000144 +00000-0 -47773-4 0  9991
2 22803 070.9873 264.9714 0019526 274.8038 085.0856 14.16817259372164
Epoch (UTC): 30 March 2020 19:44:26
Eccentricity: 0.0019526
inclination: 70.9873°
perigee height: 822 km
apogee height: 850 km
right ascension of ascending node: 264.9714°
argument of perigee: 274.8038°
revolutions per day: 14.16817259
mean anomaly at epoch: 85.0856°
orbit number at epoch: 37216

The dashed part of the orbit path shows where the satellite is in the earth's shadow,  

DLR